Weather History for McCook, NE

Change the Weather History Date:

Sunday, August 11, 2013

  Actual Average Record
Temperature  
Mean Temperature 74 °F 75 °F  
Max Temperature 85 °F 88 °F 108 °F (1936)
Min Temperature 62 °F 61 °F 46 °F (1931)
Cooling Degree Days 8    
Growing Degree Days 23 (Base 50)    
Moisture  
Dew Point 63 °F    
Average Humidity 72    
Maximum Humidity 93    
Minimum Humidity 53    
Precipitation  
Precipitation 0.11 in 0.12 in 3.11 in (1980)
Month to date precipitation 0.71 1.31  
Year to date precipitation 8.39 15.88  
Sea Level Pressure  
Sea Level Pressure 30.03 in    
Wind  
Wind Speed 8 mph (South)    
Max Wind Speed 13 mph    
Max Gust Speed 17 mph    
Visibility 9 miles    
Events Rain , Thunderstorm    
T = Trace of Precipitation, MM = Missing Value Source: NWS Daily Summary

Daily Weather History Graph

Daily Weather History Graph

Search for Another Location

Airport:

Trip Planner

Search our weather history database for the weather conditions in past years. The results will help you decide how hot, cold, wet, or windy it might be!

Date:

Astronomy

Aug. 11, 2013 Rise Set
Actual Time 6:50 AM CDT 8:44 PM CDT
Civil Twilight 6:20 AM CDT 9:13 PM CDT
Nautical Twilight 5:44 AM CDT 9:49 PM CDT
Astronomical Twilight 5:05 AM CDT 10:27 PM CDT
Moon 11:40 AM CDT (8/11) 11:00 PM CDT (8/11)
Length of Visible Light 14h 53m
Length of Day
13h 54m
Waxing Crescent, 22% of the Moon is Illuminated
Aug 11
Waxing Crescent
Aug 14
First Quarter
Aug 20
Full
Aug 28
Last Quarter
Sep 5
New

Hourly Weather History & Observations

Time (CDT) Temp. Heat Index Dew Point Humidity Pressure Visibility Wind Dir Wind Speed Gust Speed Precip Events Conditions
12:53 AM 66.9 °F - 60.1 °F 79% 30.07 in 10.0 mi South 9.2 mph - N/A   Clear
1:53 AM 69.1 °F - 61.0 °F 75% 30.08 in 10.0 mi South 9.2 mph - N/A   Clear
2:53 AM 66.0 °F - 61.0 °F 84% 30.06 in 10.0 mi South 9.2 mph - N/A   Clear
3:53 AM 66.0 °F - 61.0 °F 84% 30.06 in 10.0 mi South 9.2 mph - N/A   Clear
4:53 AM 64.9 °F - 61.0 °F 87% 30.05 in 10.0 mi SW 5.8 mph - N/A   Clear
5:53 AM 64.0 °F - 61.0 °F 90% 30.06 in 10.0 mi Calm Calm - N/A   Clear
6:53 AM 62.1 °F - 60.1 °F 93% 30.05 in 8.0 mi SE 4.6 mph - N/A   Clear
7:53 AM 63.0 °F - 61.0 °F 93% 30.05 in 7.0 mi South 4.6 mph - N/A   Clear
8:53 AM 71.1 °F - 63.0 °F 75% 30.06 in 10.0 mi SSW 8.1 mph - N/A   Clear
9:53 AM 75.9 °F - 63.0 °F 64% 30.06 in 10.0 mi SSW 12.7 mph - N/A   Clear
10:53 AM 79.0 °F - 64.0 °F 60% 30.06 in 10.0 mi SSW 11.5 mph - N/A   Clear
11:53 AM 82.0 °F 83.4 °F 64.0 °F 54% 30.05 in 10.0 mi South 11.5 mph - N/A   Clear
12:53 PM 82.0 °F 83.4 °F 64.0 °F 54% 30.04 in 10.0 mi South 10.4 mph 17.3 mph N/A   Clear
1:53 PM 82.0 °F 83.4 °F 64.0 °F 54% 30.02 in 10.0 mi South 8.1 mph - N/A   Clear
2:53 PM 81.0 °F 82.5 °F 64.0 °F 56% 30.01 in 10.0 mi SSE 6.9 mph - N/A   Clear
3:53 PM 82.0 °F 83.8 °F 64.9 °F 56% 30.00 in 10.0 mi SE 8.1 mph - N/A   Clear
4:53 PM 84.0 °F 85.8 °F 64.9 °F 53% 29.98 in 10.0 mi SSE 9.2 mph - N/A   Partly Cloudy
5:53 PM 84.0 °F 85.8 °F 64.9 °F 53% 29.98 in 10.0 mi SE 5.8 mph - N/A   Partly Cloudy
6:53 PM 82.9 °F 85.0 °F 66.0 °F 56% 29.97 in 10.0 mi South 3.5 mph - N/A   Scattered Clouds
7:53 PM 82.0 °F 84.5 °F 66.9 °F 60% 29.97 in 10.0 mi West 3.5 mph - N/A Thunderstorm Overcast
8:53 PM 73.9 °F - 59.0 °F 59% 29.97 in 10.0 mi East 4.6 mph - N/A Thunderstorm Overcast
9:53 PM 71.1 °F - 66.9 °F 87% 30.00 in 4.0 mi NE 4.6 mph - 0.08 in Rain , Thunderstorm Rain
10:53 PM 66.9 °F - 64.9 °F 93% 29.99 in 8.0 mi South 3.5 mph - 0.03 in Rain , Thunderstorm Light Rain
11:01 PM 68.0 °F - 64.4 °F 88% 30.04 in 10.0 mi SSE 6.9 mph - 0.00 in Rain Light Rain
11:53 PM 66.9 °F - 64.9 °F 93% 30.00 in 8.0 mi North 3.5 mph - 0.00 in   Clear